Regional Weather Roundup
Issued by NWS

Home | Current Version | Previous Version | Graphics & Text | Print | Product List | Glossary Off
Versions: 1 2 3 4 5 6 7 8 9 10 11 12 13 14 15 16 17 18 19 20 21 22 23 24 25 26 27 28 29 30 31 32 33 34 35 36 37 38 39 40 41 42 43 44 45 46 47 48 49 50

000
ASUS43 KMKX 241159
RWRWI

WISCONSIN REGIONAL WEATHER ROUNDUP
NATIONAL WEATHER SERVICE MILWAUKEE/SULLIVAN WI
600 AM CST SAT FEB 24 2018

NOTE: "FAIR" INDICATES FEW OR NO CLOUDS BELOW 12,000 FEET WITH NO
SIGNIFICANT WEATHER AND/OR OBSTRUCTIONS TO VISIBILITY.

WIZ001-002-006>008-014>016-023>028-241300-
NORTHWEST WISCONSIN

CITY           SKY/WX    TMP DP  RH WIND       PRES   REMARKS
SUPERIOR ARPT  FAIR       2  -1  88 CALM      30.21F FOG
6HR MIN TEMP:   0; 6HR MAX TEMP:  24;

ASHLAND        FAIR       1  -1  91 S5        30.21S WCI  -9
6HR MIN TEMP:   1; 6HR MAX TEMP:  25;

HAYWARD        FOG        4   1  88 N3        30.17F VSB 1/4
6HR MIN TEMP:   3; 6HR MAX TEMP:  14;

SIREN          CLOUDY    -3  -6  85 S3        30.19S
CUMBERLAND     FOG       -2  -6  84 CALM      30.18F VSB<1/4
RICE LAKE      SNOW       5   3  89 CALM      30.21F VSB<1/4
CHETEK         FOG       10   7  91 CALM      30.21S VSB 1/4
LADYSMITH      FOG       10   7  89 CALM      30.22S VSB 1/4
EAU CLAIRE     FOG        9   7  92 CALM      30.20F VSB 1/4
MENOMONIE      SNOW       6   3  88 CALM      30.21F VSB 1/4
6HR MIN TEMP:  -1; 6HR MAX TEMP:  12;

NEW RICHMOND   FOG        1  -4  81 CALM      30.19F VSB 1/4
OSCEOLA        CLOUDY    -2  -6  82 SE5       30.23S WCI -12
$$

WIZ003>005-009-010-017-018-241300-
NORTH CENTRAL WISCONSIN

CITY           SKY/WX    TMP DP  RH WIND       PRES   REMARKS
MANITOWISH WTR FOG        4   3  94 CALM      30.16S VSB 1
ARBOR VITAE    FOG        9   6  87 CALM      30.16S VSB 1/4
WOODRUFF       FOG        9   6  87 CALM      30.16S VSB 1/4
RHINELANDER    FOG        3   1  91 CALM      30.16F VSB 1/4
6HR MIN TEMP:   1; 6HR MAX TEMP:  24;

EAGLE RIVER    CLOUDY     5   1  85 CALM      30.16F
6HR MIN TEMP:   4; 6HR MAX TEMP:  27;

LAND O LAKES   FAIR       3   0  86 CALM      30.18S
PHILLIPS       CLOUDY     6   4  91 CALM      30.17S
TOMAHAWK         N/A      2  -1  87 CALM      30.18F FOG
MEDFORD        FOG        9   6  89 CALM      30.18S VSB 1/2
MERRILL        FOG       12  10  91 CALM      30.21S VSB 1/4
6HR MIN TEMP:   7; 6HR MAX TEMP:  14;

$$

WIZ029-030-035-036-043>047-241300-
CENTRAL WISCONSIN

CITY           SKY/WX    TMP DP  RH WIND       PRES   REMARKS
WAUSAU         FOG       17  15  92 CALM      30.19S VSB 1/4
6HR MIN TEMP:  15; 6HR MAX TEMP:  22;

MOSINEE        FOG       18  18 100 CALM      30.21S VSB 1/8
MARSHFIELD     CLOUDY    14  10  84 NE3       30.18S FOG
6HR MIN TEMP:  13; 6HR MAX TEMP:  18;

STEVENS POINT  FAIR      13  13  98 CALM      30.22S FOG
WAUPACA        FAIR      23  20  89 CALM      30.23S FOG
WAUTOMA        FAIR      19  17  92 CALM      30.23  FOG
6HR MIN TEMP:  18; 6HR MAX TEMP:  28;

WISC RAPIDS    FAIR      15  11  83 SE3       30.22S FOG
6HR MIN TEMP:  15; 6HR MAX TEMP:  24;

CAMP DOUGLAS   FAIR      15  14  94 CALM      30.20F
6HR MIN TEMP:  14; 6HR MAX TEMP:  22;

$$

WIZ011>013-019>022-031-037>040-048>050-241300-
NORTHEAST WISCONSIN

CITY           SKY/WX    TMP DP  RH WIND       PRES   REMARKS
ANTIGO         FOG       10   8  92 CALM      30.19S VSB 1/4
SHAWANO        FAIR      27  23  85 CALM      30.23F
6HR MIN TEMP:  27; 6HR MAX TEMP:  32;

OCONTO         CLOUDY    28  25  87 CALM      30.25S
STURGEON BAY   CLOUDY    30  23  75 SE3       30.25S
6HR MIN TEMP:  30; 6HR MAX TEMP:  32;

GREEN BAY      CLOUDY    28  23  81 CALM      30.24S
6HR MIN TEMP:  27; 6HR MAX TEMP:  32;

MANITOWOC      CLOUDY    30  24  78 N5        30.25F WCI  25
6HR MIN TEMP:  29; 6HR MAX TEMP:  32;

APPLETON       PTCLDY    21  18  86 CALM      30.21F
CLINTONVILLE   FAIR      23  20  90 CALM      30.23S FOG
6HR MIN TEMP:  23; 6HR MAX TEMP:  31;

OSHKOSH        FAIR      24  21  88 CALM      30.22F
6HR MIN TEMP:  24; 6HR MAX TEMP:  30;

$$

WIZ032>034-041-042-053>061-241300-
SOUTHWEST WISCONSIN

CITY           SKY/WX    TMP DP  RH WIND       PRES   REMARKS
LA CROSSE      FAIR      19  16  88 W5        30.20F FOG     WCI  12
6HR MIN TEMP:  19; 6HR MAX TEMP:  23;

SPARTA         FAIR      15  13  95 CALM      30.22S FOG
VIROQUA        FAIR      22  22 100 E8        30.15F WCI  12
BOSCOBEL       FAIR      24  20  84 NE5       30.18F FOG     WCI  18
6HR MIN TEMP:  24; 6HR MAX TEMP:  28;

PRAIRIE DU CHI FAIR      24  20  84 CALM      30.17F
PLATTEVILLE    MOCLDY    27  26  98 NE12      30.15F WCI  17
$$

WIZ056-057-062-063-064-067-068-241300-
SOUTH CENTRAL WISCONSIN

CITY           SKY/WX    TMP DP  RH WIND       PRES   REMARKS
REEDSBURG      FAIR      22  22  98 CALM      30.19F
6HR MIN TEMP:  22; 6HR MAX TEMP:  27;

BARABOO/DELLS  FAIR      22  21  94 NE5       30.19F FOG     WCI  16
LONE ROCK      NOT AVBL
MINERAL POINT  MOCLDY    28  28 100 NE10      30.14F WCI  19
MADISON        FAIR      25  22  88 NE9       30.19F WCI  15
6HR MIN TEMP:  24; 6HR MAX TEMP:  29;

MIDDLETON      MOCLDY    28  25  87 E8        30.19F WCI  20
WATERTOWN      FAIR      26  24  92 NE5       30.21S WCI  21
MONROE         MOCLDY    28  25  86 NE13      30.15S WCI  18
JANESVILLE     MOCLDY    30  30 100 E10       30.18S WCI  21
$$

WIZ051-052-058>065-066-070>072-241300-
SOUTHEAST WISCONSIN

CITY           SKY/WX    TMP DP  RH WIND       PRES   REMARKS
MILWAUKEE      MOCLDY    32  25  75 NE9       30.22F WCI  24
6HR MIN TEMP:  30; 6HR MAX TEMP:  33;

WAUKESHA       CLOUDY    27  21  80 NE10      30.21F WCI  17
MILWAUKEE/TIMM CLOUDY    30  23  74 NE6       30.23F WCI  24
RACINE         CLOUDY    32  26  78 NE13      30.23F WCI  22
6HR MIN TEMP:  29; 6HR MAX TEMP:  32;

BURLINGTON     FAIR      28  24  86 NE6       30.21S WCI  21
KENOSHA        CLOUDY    32  27  81 NE15      30.20F WCI  22
6HR MIN TEMP:  29; 6HR MAX TEMP:  32;

FOND DU LAC    FAIR      28  20  71 NE5       30.22F WCI  23
6HR MIN TEMP:  27; 6HR MAX TEMP:  31;

SHEBOYGAN      FAIR      26  23  88 NE3       30.22F
6HR MIN TEMP:  26; 6HR MAX TEMP:  31;

WEST BEND      MOCLDY    28  27  93 E3        30.23S
JUNEAU         FAIR      25  22  88 CALM      30.23S
$$

LSZ147-162-241300-
LAKE SUPERIOR

STATION/POSITION TIME  TEMP    WIND        PRES    WAVE
                       AIR SEA DIR/SP/G            HT/PER
                 (UTC) (F)     (DEG/KT/KT) (MB)    (FT/S)
DEVILS ISLAND    1100   20     270/ 11/ 12 1023.9F
SAXON HARBOR     1140   10     200/  4/  4 1022.4F
$$

LMZ867-665-643>646-241300-
LAKE MICHIGAN

STATION/POSITION TIME  TEMP    WIND        PRES    WAVE
                       AIR SEA DIR/SP/G            HT/PER
                 (UTC) (F)     (DEG/KT/KT) (MB)    (FT/S)
NORTHPORT PIER   1140   30                 1023.7F
KEWAUNEE LAKESHO 1130   30     350/  3/  4 1023.5S
SHEBOYGAN LAKESH 1100   32     360/  7/  8 1024.9R
PORT WASHINGTON  1140   31      30/  4/  7 1025.1F
KENOSHA   LAKESH 1100   33      50/ 10/ 12 1023.4
$$

TC  - TEMPERATURE IN CELSIUS
VSB - VISIBILITY IN STATUTE MILES
WCI - WIND CHILL INDEX
HX  - HEAT INDEX





USA.gov is the U.S. government's official web portal to all federal, state and local government web resources and services.